Voltar ao catálogo

CZ-6A DEB

LostSSO
NORAD 56622·DEBRIS·🇨🇳 China

Lançado Nov 11, 2022 de Taiyuan Satellite Launch Center

Loading…

Próximas Passagens (próximas 24 horas)

TLE

ObsoletoSource: Space-Track

Época: May 31, 2024, 05:20 UTC

1 56622U 22151AEW 24152.22245203 -.00853002  00000-0 -49759+0 0  9999
2 56622  98.8127 152.9961 0065368 284.1510  75.2404 14.10661706 67591

Acompanhe CZ-6A DEB em tempo real com AllMySat

Download on the App Store